Theta_e
301 303 304 305 305 306 307 308 308 308 309 310 311 314 315 316 317 316 317 319 321 323 326 328 329 330 333 334 334 334 336 336 335 333 330 327 328 326 325 321 319 317 317 312 314
301 302 303 305 305 306 307 308 307 308 309 310 310 314 315 317 318 316 316 318 321 322 323 326 329 329 331 332 334 335 338 336 332 330 330 329 328 326 325 321 316 314 310 310 310
302 302 302 304 305 306 307 308 308 309 309 309 310 313 314 315 317 315 316 318 321 322 323 327 331 331 332 334 334 334 336 334 332 331 330 329 328 326 323 320 318 312 310 309 310
302 302 302 303 305 305 307 308 308 309 309 309 310 313 313 316 319 315 317 318 320 322 324 328 329 333 333 334 333 334 333 333 332 331 330 329 324 322 321 317 312 310 311 312 314
302 302 302 303 304 305 307 308 308 309 309 310 310 311 316 316 314 315 316 318 321 322 326 328 330 331 333 332 332 332 331 330 327 326 324 321 318 316 314 313 313 313 314 313 312
302 302 302 303 304 305 306 308 308 309 309 311 314 316 318 315 315 317 319 319 320 324 323 326 329 330 330 329 330 327 325 324 323 322 319 318 316 316 314 314 313 313 312 312 312
303 301 302 303 304 305 306 308 308 309 309 310 314 314 313 313 316 318 320 321 321 322 326 327 326 326 328 327 326 324 325 323 322 321 320 318 318 316 314 313 313 312 312 311 311
306 301 302 303 304 305 306 307 308 308 308 309 313 315 313 314 316 319 320 321 322 322 322 323 326 326 326 325 325 324 323 322 320 319 319 318 318 315 313 313 312 311 311 311 311
318 302 301 303 304 305 306 307 308 308 308 309 314 316 313 314 316 317 319 320 321 321 322 322 323 324 325 325 323 322 323 321 320 319 317 317 318 315 313 313 312 312 312 312 311
320 308 301 302 304 305 306 307 308 310 309 309 313 316 313 314 313 315 317 320 321 321 321 322 322 324 323 323 324 323 323 320 318 317 316 317 319 314 313 313 312 313 313 312 312
322 317 302 302 304 306 307 309 312 315 312 314 313 314 313 312 313 314 316 319 320 321 323 322 323 323 323 320 320 322 322 320 318 316 317 318 317 315 314 313 313 313 313 313 312
323 320 303 302 304 306 307 319 314 314 312 311 312 312 312 313 313 314 315 318 319 322 322 322 322 318 317 317 320 321 320 318 316 316 318 318 317 315 314 313 314 314 313 313 313
324 321 305 302 304 305 306 316 311 313 316 311 311 312 312 312 314 313 314 315 319 321 321 322 317 315 316 317 319 319 319 317 317 315 317 318 317 316 315 315 315 315 314 314 313
324 322 307 302 304 306 308 308 309 310 319 313 311 311 311 313 313 311 313 315 317 320 320 317 314 316 317 318 318 317 317 317 317 316 318 317 318 317 317 316 316 315 315 314 314
325 322 308 302 314 311 313 307 308 312 327 313 311 310 311 312 312 311 312 314 317 317 317 315 314 315 317 317 317 317 316 316 317 317 318 318 315 318 318 316 316 316 315 315 314
324 322 308 301 307 316 310 307 310 321 318 312 311 311 311 312 312 311 312 315 314 316 316 313 313 313 316 314 314 315 316 317 317 317 320 319 317 319 319 318 317 317 316 315 314
325 321 307 307 313 311 307 309 322 328 314 311 310 312 312 312 312 312 313 313 317 318 316 313 313 312 313 314 314 316 317 329 322 325 325 318 317 318 320 319 318 317 316 316 315
325 321 305 304 316 310 308 318 319 317 312 311 311 312 312 312 313 313 313 315 315 316 317 315 315 312 313 316 316 316 319 340 330 326 323 317 315 323 319 317 317 318 317 316 315
324 321 304 303 308 309 315 319 319 316 312 310 311 311 313 313 313 313 314 315 315 316 320 318 314 311 311 313 315 316 320 320 322 322 319 318 320 319 318 316 315 316 317 316 315
321 319 308 301 305 310 320 317 315 314 311 311 312 312 312 312 312 314 314 315 315 314 315 317 317 311 311 311 313 317 317 324 330 324 326 317 318 321 316 315 315 315 315 316 315
318 308 309 308 305 314 318 318 315 312 310 312 312 312 313 312 312 313 315 315 315 314 313 315 321 311 310 311 314 315 319 320 325 324 331 324 318 319 319 317 317 315 315 316 315
310 310 317 309 313 316 321 316 314 312 310 311 312 312 313 313 313 313 314 316 314 313 313 315 321 315 311 311 310 312 315 318 326 322 325 321 319 318 318 316 316 315 314 315 315
305 311 318 310 317 320 313 315 314 313 311 312 312 312 313 314 313 314 315 311 313 313 314 315 323 323 314 312 310 312 314 311 317 320 323 328 321 316 315 314 314 315 314 314 314
307 313 314 314 313 315 315 315 316 314 313 312 312 312 313 314 314 315 315 311 311 312 311 312 314 323 325 322 317 313 315 310 316 324 319 317 317 315 314 314 313 314 313 313 312
309 309 311 308 316 315 316 316 317 315 314 312 313 313 314 315 314 315 313 311 310 311 312 313 319 316 315 313 313 313 312 313 313 315 316 313 314 315 315 314 313 313 312 312 311
308 311 312 310 310 316 316 318 317 317 315 313 314 313 313 316 316 314 313 313 313 312 313 313 319 315 315 312 311 310 310 312 313 312 312 313 312 313 313 312 312 311 311 310 309
311 313 312 314 312 318 319 317 317 317 316 315 313 314 313 314 313 314 313 313 313 315 314 315 318 316 317 312 311 314 312 311 312 311 312 311 313 313 313 311 310 310 310 309 307
Wind_Speed
5 4 3 3 5 4 4 2 5 8 8 6 3 5 8 10 14 8 9 7 6 7 7 8 6 4 3 3 14 25 13 12 17 13 11 16 14 15 17 17 12 9 12 10 10
5 4 4 2 4 4 3 3 4 7 7 6 2 2 5 6 9 18 11 5 6 8 5 5 5 7 3 2 23 13 16 18 16 24 15 19 22 16 11 17 14 15 12 10 12
6 4 6 3 3 3 4 3 4 6 7 6 1 4 2 7 5 15 9 5 8 8 9 6 8 7 12 17 28 14 17 24 24 26 24 22 19 19 22 10 8 13 12 11 13
6 4 4 5 4 3 4 3 4 6 7 7 2 4 1 6 2 15 9 4 7 4 5 11 4 18 21 21 32 30 27 29 28 25 25 23 21 22 20 13 15 14 13 11 11
6 6 4 4 5 4 3 3 3 5 6 8 6 4 1 3 7 14 8 5 6 7 8 17 19 16 16 26 32 27 28 28 27 25 25 22 17 17 20 18 16 14 12 11 10
7 6 6 5 5 5 3 3 2 4 5 7 9 8 5 8 11 12 8 3 3 4 6 7 20 27 33 18 11 27 29 27 24 24 25 25 21 12 15 15 15 12 12 10 9
9 6 5 7 5 4 4 2 2 3 4 5 9 10 10 5 11 7 9 3 1 1 21 24 18 5 17 26 27 31 26 23 22 19 19 22 13 12 16 14 14 13 12 10 9
9 8 5 6 7 5 3 3 2 3 3 4 6 10 4 9 11 11 8 12 13 12 5 9 25 24 8 30 22 19 15 13 12 19 14 2 13 14 15 15 14 13 12 11 10
9 9 6 6 7 6 3 3 1 3 3 5 3 5 5 9 9 11 9 10 14 17 17 14 8 16 30 18 14 15 12 18 12 14 10 9 14 16 16 15 14 13 12 10 10
10 10 7 5 7 6 3 2 3 3 6 8 4 2 3 6 4 8 9 10 16 17 15 17 20 13 12 14 8 11 15 13 10 11 9 12 10 18 17 15 14 14 14 12 11
10 10 8 6 5 4 2 3 2 2 7 4 2 3 8 7 7 5 7 5 3 5 6 8 8 12 16 4 12 6 15 11 11 12 12 7 14 14 18 17 17 15 14 12 12
12 10 8 7 5 4 4 6 5 1 3 5 3 6 6 2 6 6 3 3 5 7 5 8 5 6 4 2 6 9 8 11 6 6 5 8 13 15 20 19 19 17 16 15 14
13 11 10 7 5 5 7 5 3 6 4 1 3 5 4 4 1 5 4 1 6 4 9 5 7 3 1 4 6 6 8 8 5 8 10 9 12 17 19 20 19 18 17 16 15
15 12 10 5 2 6 5 5 7 1 3 5 5 2 5 2 1 2 2 3 1 5 7 6 1 2 6 6 8 6 7 2 6 9 2 12 7 19 19 18 22 20 17 17 15
19 14 9 10 4 2 8 6 4 1 2 6 6 3 5 6 11 2 3 3 3 3 3 3 3 4 7 6 7 6 4 4 6 9 9 9 6 14 20 17 16 21 20 17 17
22 14 11 10 8 6 8 8 1 5 4 5 4 7 9 4 3 6 3 7 8 10 11 4 3 6 6 5 4 4 3 3 3 7 6 16 8 10 16 17 18 23 22 21 18
24 17 15 12 5 11 11 8 2 2 4 6 5 8 11 6 7 9 9 7 5 4 5 6 2 2 5 6 3 6 5 2 5 4 5 5 4 9 9 11 17 25 26 25 22
25 21 18 19 7 12 15 6 3 7 4 5 6 8 10 7 6 9 10 8 9 10 7 7 3 4 2 3 3 8 7 2 4 3 4 7 6 3 11 8 4 6 27 27 24
29 24 23 25 19 17 12 2 7 8 9 8 9 9 8 8 3 6 8 10 9 7 5 6 5 3 4 4 5 5 3 6 4 6 3 5 5 3 9 10 8 6 15 24 23
30 24 23 26 20 18 6 6 8 2 9 13 5 6 8 9 5 6 9 6 8 4 5 2 4 4 3 3 3 4 5 2 2 1 3 6 11 1 13 12 10 11 10 22 23
29 13 12 26 23 16 5 9 7 8 13 8 4 9 10 7 10 8 4 2 4 5 3 2 4 4 2 7 8 3 2 3 3 3 2 3 1 6 10 10 11 12 13 15 22
28 5 18 27 14 13 10 15 12 13 12 3 7 5 8 7 5 7 8 2 6 11 5 1 3 4 5 3 4 5 9 8 3 4 3 4 4 4 7 7 9 10 10 11 18
24 9 13 25 7 11 16 18 11 14 14 8 7 4 3 6 3 8 3 6 5 7 4 6 4 2 3 3 2 4 3 4 2 2 5 2 2 4 4 4 5 9 10 12 15
15 3 6 17 23 18 20 22 16 18 17 10 7 8 6 6 8 2 2 3 1 4 2 2 3 5 3 3 4 2 3 3 4 3 2 12 11 8 9 8 11 10 11 14 14
13 9 10 6 13 20 23 18 21 13 19 17 9 10 9 6 11 8 3 4 2 5 2 3 3 1 2 6 6 6 5 11 9 15 6 9 13 7 8 9 12 11 11 12 11
13 9 9 18 27 21 18 22 25 21 16 19 11 14 12 5 6 6 8 6 5 10 8 5 2 2 3 10 10 11 11 13 16 18 19 20 22 20 5 8 10 10 13 13 12
19 18 15 18 24 16 17 23 22 25 20 22 19 11 11 6 9 6 7 12 11 9 10 7 2 2 3 2 5 6 17 18 16 11 17 15 14 17 6 10 10 9 11 13 12
Wind_Direction
353 360 5 5 356 353 358 6 356 2 14 34 45 67 90 72 61 32 30 71 75 76 79 81 109 139 36 353 101 119 129 123 115 125 128 138 100 74 82 87 72 64 102 100 81
342 341 340 356 349 347 343 340 351 2 3 22 44 116 90 71 66 29 15 79 42 8 345 230 94 155 162 350 72 344 71 69 93 114 125 114 105 103 105 92 87 90 84 85 80
333 342 323 334 335 343 322 333 352 359 7 13 356 191 85 1 317 12 18 90 80 13 23 65 82 135 133 58 97 139 102 105 110 119 116 115 108 120 119 83 97 124 113 94 96
329 324 320 319 319 328 318 326 350 360 9 11 35 180 16 348 13 352 8 110 83 59 22 133 113 91 87 86 101 101 105 108 116 120 122 121 106 73 90 113 113 116 106 100 93
328 320 308 311 307 309 312 309 351 7 14 29 80 108 235 76 12 353 3 110 46 355 104 114 104 102 96 100 99 104 111 108 108 108 107 106 101 102 105 115 120 120 118 110 100
324 324 309 299 293 299 301 296 340 358 30 63 73 39 320 67 358 353 37 344 333 98 33 164 97 111 114 105 99 117 110 113 116 114 113 114 123 112 123 130 127 126 122 113 107
328 316 310 296 288 284 292 280 307 342 43 100 87 51 66 48 15 21 46 55 136 132 108 111 116 126 108 100 121 121 116 115 123 132 130 118 105 119 141 143 137 134 128 123 117
337 308 305 297 288 277 273 269 273 333 27 131 87 58 58 68 64 68 84 82 91 93 114 113 116 117 113 126 134 126 126 129 146 142 160 288 138 146 154 153 147 145 140 134 122
329 306 296 301 286 279 257 231 283 355 29 113 78 351 110 67 68 76 97 99 104 102 109 118 91 122 136 142 153 190 163 131 154 191 155 224 135 162 170 166 158 158 149 142 131
299 309 295 296 289 278 257 164 54 44 55 95 48 27 134 110 85 79 75 117 105 107 110 112 119 143 161 179 164 211 130 155 161 187 204 197 151 160 181 176 173 170 162 164 158
284 304 293 283 283 266 197 125 316 135 43 38 42 74 108 127 99 97 86 120 162 203 166 208 180 174 181 338 302 182 126 172 139 162 200 186 139 171 186 185 187 178 172 173 159
266 289 283 268 260 234 183 0 19 86 62 64 103 99 127 165 130 107 112 240 235 206 172 185 105 49 64 329 281 106 166 113 122 192 271 189 157 175 187 197 188 187 185 175 157
253 271 280 261 247 224 193 297 230 153 250 124 115 149 146 317 110 94 328 294 247 182 207 188 77 17 141 193 189 159 170 166 193 187 251 192 187 185 189 200 198 199 191 183 179
239 253 263 239 288 240 218 224 186 151 220 141 192 166 186 117 62 68 29 358 256 222 89 60 78 96 209 144 357 157 56 180 152 197 261 204 271 186 188 196 202 197 199 190 189
229 237 244 209 177 194 229 197 188 269 37 159 125 143 163 198 141 143 133 272 199 78 359 66 140 200 204 68 350 87 151 209 204 244 316 204 251 220 179 199 199 200 198 198 190
221 221 225 216 215 201 212 180 150 41 234 163 151 182 168 196 152 143 115 90 93 76 60 72 35 19 34 113 5 130 163 215 264 257 262 251 209 149 179 198 198 198 197 198 197
217 216 210 170 218 223 175 170 109 179 191 147 187 168 183 193 177 181 169 160 177 135 141 146 75 14 307 120 149 218 198 220 226 183 247 67 190 270 118 176 197 188 190 192 194
215 216 204 195 225 194 172 206 125 210 174 104 157 179 189 169 216 210 187 190 224 226 146 176 195 177 160 356 291 220 215 171 266 261 322 145 236 127 125 127 98 178 183 184 186
216 208 207 198 194 187 187 140 199 222 138 153 126 175 195 170 328 222 245 209 198 232 190 199 123 85 339 352 327 192 240 353 290 294 278 256 122 140 144 151 161 175 174 174 182
206 200 212 207 194 183 209 201 224 249 153 160 130 175 210 197 202 205 204 223 186 193 16 355 111 189 126 307 251 316 335 177 31 114 247 265 272 157 175 175 178 184 200 174 179
194 157 235 211 185 187 180 194 203 164 165 179 152 150 199 198 204 201 208 60 176 154 245 158 102 147 93 210 198 191 230 238 191 233 274 311 351 355 171 187 171 190 184 189 176
161 113 192 195 177 188 202 196 236 172 180 160 164 143 153 163 225 248 240 197 133 148 200 125 87 174 204 75 341 318 226 199 154 248 243 316 280 43 58 77 150 172 170 184 171
152 139 197 187 191 187 198 213 213 177 190 175 167 145 183 138 82 266 247 8 120 176 311 147 172 124 218 199 220 235 216 94 49 350 238 192 240 129 133 159 182 149 169 167 173
150 130 192 197 221 190 191 201 200 209 196 190 164 142 162 128 182 245 182 87 352 232 46 145 243 202 211 87 109 241 217 143 135 196 244 242 270 195 199 198 178 163 167 166 174
148 206 170 185 225 200 197 193 193 190 207 190 183 196 175 158 175 193 228 99 201 220 254 228 240 221 249 255 205 218 214 193 198 223 210 261 256 298 180 179 169 160 164 151 159
164 145 189 185 199 207 198 215 198 197 196 192 205 196 191 195 178 174 185 158 197 179 216 204 267 250 262 245 236 259 248 222 215 241 250 262 273 296 139 144 152 170 176 166 159
199 170 183 164 194 208 202 206 206 203 194 206 206 172 195 177 170 126 174 187 246 161 210 181 212 152 251 342 311 291 237 235 224 217 220 242 258 277 157 151 152 167 167 161 165